Flag for Pakistan Weather past 2 weeks in Sukkur, Sindh, Pakistan

Now
111 °F

Haze.


Feels Like: 131 °F
Forecast: 85 / 110 °F
Wind: 7 mph from Southwest

Location: Sukkur

Current Time: Apr 26, 2015 at 6:46:22 PM

Latest Report: Apr 26, 2015 at 6:00 PM


Visibility: 3 mi

Pressure: 29.56 "Hg

Humidity: 34%

Dew point: 77 °F

Location of SukkurLocation

Historic Weather in Sukkur — Graph

°F

Sukkur temperature yesterday

Maximum temperature yesterday: 113 °F (at 4:00 PM)
Minimum temperature yesterday: 77 °F (at 6:00 AM)
Average temperature yesterday: 97 °F

Past Weeks' High & Low Weather Summary

 TemperatureHumidityPressure
High113 °F (Apr 18, 2:00 PM)79% (Apr 26, 6:00 AM)29.95 "Hg (Apr 26, 6:00 AM)
Low73 °F (Apr 12, 7:00 AM)18% (Apr 18, 1:00 PM)29.42 "Hg (Apr 19, 5:00 PM)
Average92 °F43%29.70 "Hg
* Reported Apr 11 6:00 PM — Apr 26 6:00 PM, Sukkur, Weather by CustomWeather, © 2015

Note: Actual official high and low records may vary slightly from our data, if they occured in-between our weather recording intervals... More about our weather records

Advertising

Sukkur weather history for previous 24 hours

 ConditionsComfort  
Time TempWeatherWind HumidityBarometerVisibility
6:00 PM
Sun, Apr 26
111 °FHaze.7 mph34%29.56 "Hg3 mi
5:00 PM113 °FHaze.7 mph31%29.56 "Hg3 mi
4:00 PM111 °FHaze.5 mph34%29.56 "Hg2 mi
3:00 PM111 °FHaze.7 mph34%29.62 "Hg2 mi
2:00 PM109 °FHaze.7 mph36%29.62 "Hg3 mi
1:00 PM108 °FHaze.7 mph38%29.65 "Hg2 mi
12:00 PM104 °FHaze.7 mph43%29.65 "Hg2 mi
11:30 AM100 °FHaze.7 mph50%29.68 "Hg2 mi
11:00 AM100 °FHaze.7 mph50%29.68 "Hg2 mi
10:00 AM93 °FHaze.7 mph71%29.65 "Hg2 mi
9:00 AM90 °FHaze.9 mph67%29.65 "Hg2 mi
8:00 AM84 °FHaze.9 mph79%29.62 "Hg2 mi
7:00 AM81 °FHaze.9 mph79%29.62 "Hg2 mi
6:00 AM79 °FHaze.7 mph79%29.56 "Hg2 mi
3:00 AM81 °FHaze.No wind54%29.53 "Hg2 mi
2:00 AM81 °FHaze.No wind58%29.56 "Hg2 mi
1:30 AM82 °FHaze.No wind55%29.56 "Hg2 mi
1:00 AM82 °FHaze.No wind55%29.56 "Hg2 mi
12:30 AM82 °FHaze.No wind55%29.56 "Hg2 mi
12:00 AM84 °FHaze.No wind58%29.59 "Hg2 mi
11:00 PM
Sat, Apr 25
86 °FHaze.No wind55%29.56 "Hg2 mi
10:00 PM90 °FHaze.No wind55%29.56 "Hg2 mi
9:00 PM95 °FHaze.No wind50%29.53 "Hg2 mi
8:00 PM100 °FHaze.5 mph42%N/A2 mi
7:00 PM108 °FHaze.No wind30%N/A3 mi
6:00 PM111 °FHaze.No wind27%N/A3 mi
Weather by CustomWeather, © 2015

See weather overviewHow to use our weather pages